Retour au catalogue

SPIRALE A

ActifMilitaireHEO
NORAD 33751·PAYLOAD·🇫🇷 France

Lancé Feb 12, 2009 depuis Guiana Space Centre

Loading…

Prochains Passages (prochaines 24 heures)

TLE

FraisSource: Space-Track

Époque: Sep 14, 2026, 07:14 UTC

1 33751U 09008C   26257.30165696  .00027075  00000-0  13316-2 0  9991
2 33751   2.0022 164.5592 5598667  63.1730 342.7544  4.72471891266416

Suivez SPIRALE A en temps réel avec AllMySat

Download on the App Store